PUA2419 SUMU-SUSO

Flight info

Callsign PUA2419
Flight time 0h 46m
Altitude 24000
Route GUVIN W23 SANDU
Aircraft A320/M-SDE3FGHIRWY/LB1

Departure

Time 2026-05-07 17:49
Airport Carrasco General Cesáreo L. Berisso International Airport (SUMU)

Arrival

Time 2026-05-07 18:35
Airport Nueva Hesperides International Airport (SUSO)
Time Latitude Longitude Altitude Speed Heading
2026-05-07 16:57 -34.83619 -56.01802 87 ft 0 kts 144°
2026-05-07 17:35 -34.83611 -56.01809 87 ft 2 kts 144°
2026-05-07 17:35 -34.83598 -56.01821 87 ft 2 kts 144°
2026-05-07 17:36 -34.83584 -56.01833 85 ft 2 kts 144°
2026-05-07 17:36 -34.83570 -56.01846 87 ft 3 kts 129°
2026-05-07 17:36 -34.83561 -56.01865 87 ft 3 kts 92°
2026-05-07 17:36 -34.83564 -56.01886 86 ft 2 kts 59°
2026-05-07 17:37 -34.83570 -56.01897 85 ft 0 kts 59°
2026-05-07 17:37 -34.83570 -56.01898 85 ft 0 kts 59°
2026-05-07 17:37 -34.83570 -56.01899 85 ft 0 kts 59°
2026-05-07 17:43 -34.83570 -56.01898 82 ft 1 kts 59°
2026-05-07 17:43 -34.83545 -56.01849 85 ft 10 kts 54°
2026-05-07 17:43 -34.83496 -56.01774 84 ft 12 kts 41°
2026-05-07 17:44 -34.83419 -56.01788 84 ft 13 kts 325°
2026-05-07 17:44 -34.83342 -56.01851 84 ft 14 kts 335°
2026-05-07 17:44 -34.83260 -56.01797 83 ft 15 kts 53°
2026-05-07 17:44 -34.83195 -56.01687 85 ft 17 kts 53°
2026-05-07 17:45 -34.83121 -56.01565 85 ft 18 kts 53°
2026-05-07 17:45 -34.83042 -56.01436 84 ft 20 kts 52°
2026-05-07 17:45 -34.82954 -56.01295 85 ft 20 kts 54°
2026-05-07 17:45 -34.82892 -56.01236 84 ft 11 kts
2026-05-07 17:46 -34.82856 -56.01253 84 ft 0 kts 328°
2026-05-07 17:47 -34.82849 -56.01258 84 ft 6 kts 328°
2026-05-07 17:47 -34.82794 -56.01333 83 ft 14 kts 279°
2026-05-07 17:48 -34.82845 -56.01450 84 ft 22 kts 233°
2026-05-07 17:48 -34.83061 -56.01804 84 ft 88 kts 234°
2026-05-07 17:48 -34.83557 -56.02614 85 ft 145 kts 235°
2026-05-07 17:48 -34.84223 -56.03733 288 ft 173 kts 239°
2026-05-07 17:49 -34.84948 -56.04919 997 ft 174 kts 236°
2026-05-07 17:49 -34.85679 -56.06116 1715 ft 180 kts 236°
2026-05-07 17:49 -34.86454 -56.07362 2362 ft 188 kts 236°
2026-05-07 17:49 -34.87143 -56.08774 2807 ft 204 kts 260°
2026-05-07 17:50 -34.86934 -56.10524 3195 ft 225 kts 301°
2026-05-07 17:50 -34.85704 -56.11803 3613 ft 252 kts 339°
2026-05-07 17:50 -34.83917 -56.12211 4361 ft 263 kts 351°
2026-05-07 17:50 -34.82080 -56.12458 5234 ft 269 kts 351°
2026-05-07 17:51 -34.80200 -56.12710 6042 ft 276 kts 351°
2026-05-07 17:51 -34.78267 -56.12969 6803 ft 282 kts 353°
2026-05-07 17:51 -34.76302 -56.13282 7589 ft 288 kts 347°
2026-05-07 17:51 -34.74353 -56.13912 8377 ft 293 kts 341°
2026-05-07 17:52 -34.72408 -56.14736 9166 ft 299 kts 339°
2026-05-07 17:52 -34.70445 -56.15642 9867 ft 308 kts 338°
2026-05-07 17:52 -34.68369 -56.16613 10143 ft 331 kts 336°
2026-05-07 17:52 -34.66171 -56.17617 10737 ft 340 kts 337°
2026-05-07 17:53 -34.63954 -56.18592 11633 ft 339 kts 337°
2026-05-07 17:53 -34.61740 -56.19540 12585 ft 336 kts 336°
2026-05-07 17:53 -34.59543 -56.20466 13501 ft 333 kts 335°
2026-05-07 17:53 -34.57359 -56.21383 14326 ft 330 kts 335°
2026-05-07 17:54 -34.55196 -56.22287 15177 ft 327 kts 335°
2026-05-07 17:54 -34.53052 -56.23184 16033 ft 324 kts 335°
2026-05-07 17:54 -34.50962 -56.24061 16873 ft 321 kts 335°
2026-05-07 17:54 -34.48859 -56.24945 17631 ft 321 kts 336°
2026-05-07 17:55 -34.46745 -56.25836 18216 ft 323 kts 337°
2026-05-07 17:55 -34.44608 -56.26736 18794 ft 325 kts 337°
2026-05-07 17:55 -34.42464 -56.27638 19369 ft 327 kts 338°
2026-05-07 17:55 -34.40310 -56.28543 19945 ft 329 kts 338°
2026-05-07 17:56 -34.38157 -56.29495 20494 ft 329 kts 333°
2026-05-07 17:56 -34.36099 -56.30711 21053 ft 330 kts 332°
2026-05-07 17:56 -34.34050 -56.31934 21708 ft 328 kts 332°
2026-05-07 17:56 -34.32004 -56.33154 22271 ft 329 kts 332°
2026-05-07 17:57 -34.29902 -56.34407 22754 ft 331 kts 332°
2026-05-07 17:57 -34.28546 -56.35214 23048 ft 333 kts 333°
2026-05-07 17:57 -34.25740 -56.36879 23541 ft 337 kts 333°
2026-05-07 17:57 -34.23643 -56.38122 23625 ft 332 kts 333°
2026-05-07 17:58 -34.21615 -56.39320 23647 ft 319 kts 333°
2026-05-07 17:58 -34.19626 -56.40495 23653 ft 315 kts 333°
2026-05-07 17:58 -34.17666 -56.41655 23656 ft 314 kts 333°
2026-05-07 17:58 -34.15702 -56.42820 23657 ft 314 kts 333°
2026-05-07 17:59 -34.13739 -56.43981 23656 ft 314 kts 333°
2026-05-07 17:59 -34.11768 -56.45145 23646 ft 317 kts 333°
2026-05-07 17:59 -34.09770 -56.46325 23664 ft 321 kts 333°
2026-05-07 17:59 -34.07760 -56.47512 23667 ft 322 kts 333°
2026-05-07 18:00 -34.05751 -56.48701 23660 ft 322 kts 333°
2026-05-07 18:00 -34.03741 -56.49889 23663 ft 321 kts 333°
2026-05-07 18:00 -34.01740 -56.51069 23664 ft 321 kts 333°
2026-05-07 18:00 -33.99720 -56.52256 23663 ft 321 kts 333°
2026-05-07 18:01 -33.97714 -56.53437 23665 ft 321 kts 333°
2026-05-07 18:01 -33.95701 -56.54623 23664 ft 322 kts 333°
2026-05-07 18:01 -33.93694 -56.55805 23660 ft 322 kts 333°
2026-05-07 18:01 -33.91686 -56.56986 23664 ft 322 kts 333°
2026-05-07 18:02 -33.87661 -56.59347 23700 ft 321 kts 333°
2026-05-07 18:02 -33.86335 -56.60124 23700 ft 320 kts 333°
2026-05-07 18:02 -33.84340 -56.61295 23702 ft 319 kts 333°
2026-05-07 18:03 -33.82340 -56.62466 23697 ft 319 kts 333°
2026-05-07 18:03 -33.80343 -56.63635 23694 ft 318 kts 333°
2026-05-07 18:03 -33.78354 -56.64799 23693 ft 318 kts 333°
2026-05-07 18:03 -33.76366 -56.65963 23693 ft 318 kts 333°
2026-05-07 18:04 -33.74374 -56.67128 23677 ft 318 kts 333°
2026-05-07 18:04 -33.72380 -56.68295 23671 ft 319 kts 332°
2026-05-07 18:04 -33.70385 -56.69463 23667 ft 319 kts 332°
2026-05-07 18:04 -33.68391 -56.70630 23665 ft 319 kts 333°
2026-05-07 18:05 -33.66391 -56.71797 23666 ft 320 kts 333°
2026-05-07 18:05 -33.64387 -56.72964 23664 ft 320 kts 333°
2026-05-07 18:05 -33.62386 -56.74127 23666 ft 320 kts 333°
2026-05-07 18:05 -33.60355 -56.75307 23666 ft 320 kts 333°
2026-05-07 18:06 -33.58352 -56.76474 23666 ft 320 kts 333°
2026-05-07 18:06 -33.56379 -56.77627 23626 ft 320 kts 333°
2026-05-07 18:06 -33.54358 -56.78805 23642 ft 325 kts 333°
2026-05-07 18:06 -33.52294 -56.80005 23699 ft 336 kts 333°
2026-05-07 18:07 -33.50165 -56.81240 23813 ft 348 kts 333°
2026-05-07 18:07 -33.47937 -56.82532 23931 ft 359 kts 333°
2026-05-07 18:07 -33.45633 -56.83871 24048 ft 369 kts 333°
2026-05-07 18:07 -33.43303 -56.85225 24304 ft 373 kts 334°
2026-05-07 18:08 -33.41010 -56.86554 24886 ft 368 kts 334°
2026-05-07 18:08 -33.38713 -56.87882 25442 ft 365 kts 335°
2026-05-07 18:08 -33.36431 -56.89201 25870 ft 365 kts 335°
2026-05-07 18:08 -33.34147 -56.90519 26296 ft 365 kts 335°
2026-05-07 18:09 -33.31835 -56.91854 26766 ft 363 kts 336°
2026-05-07 18:09 -33.29562 -56.93165 27256 ft 362 kts 336°
2026-05-07 18:09 -33.27298 -56.94472 27751 ft 361 kts 336°
2026-05-07 18:09 -33.25041 -56.95777 28241 ft 359 kts 336°
2026-05-07 18:10 -33.22793 -56.97079 28732 ft 358 kts 336°
2026-05-07 18:10 -33.20554 -56.98375 29224 ft 357 kts 337°
2026-05-07 18:10 -33.18325 -56.99664 29677 ft 355 kts 337°
2026-05-07 18:10 -33.16100 -57.00947 30073 ft 355 kts 337°
2026-05-07 18:11 -33.13886 -57.02223 30157 ft 351 kts 337°
2026-05-07 18:11 -33.12441 -57.03055 30004 ft 344 kts 337°
2026-05-07 18:11 -33.09609 -57.04687 29722 ft 332 kts 337°
2026-05-07 18:12 -33.05489 -57.07058 29669 ft 328 kts 337°
2026-05-07 18:12 -33.01375 -57.09421 29670 ft 328 kts 337°
2026-05-07 18:13 -32.97263 -57.11779 29687 ft 328 kts 336°
2026-05-07 18:13 -32.93180 -57.14124 29671 ft 327 kts 336°
2026-05-07 18:14 -32.89080 -57.16476 29666 ft 326 kts 336°
2026-05-07 18:14 -32.84976 -57.18824 29663 ft 326 kts 336°
2026-05-07 18:15 -32.80883 -57.21162 29425 ft 326 kts 336°
2026-05-07 18:15 -32.78841 -57.22328 29126 ft 331 kts 336°
2026-05-07 18:15 -32.76705 -57.23546 28859 ft 343 kts 336°
2026-05-07 18:15 -32.74548 -57.24775 28590 ft 345 kts 336°
2026-05-07 18:16 -32.72385 -57.26009 28326 ft 345 kts 336°
2026-05-07 18:16 -32.70225 -57.27245 28066 ft 344 kts 335°
2026-05-07 18:16 -32.68077 -57.28476 27806 ft 342 kts 335°
2026-05-07 18:16 -32.65937 -57.29701 27547 ft 341 kts 335°
2026-05-07 18:17 -32.63801 -57.30919 27294 ft 339 kts 335°
2026-05-07 18:17 -32.61678 -57.32123 27040 ft 337 kts 335°
2026-05-07 18:17 -32.59564 -57.33320 26754 ft 337 kts 335°
2026-05-07 18:17 -32.57446 -57.34521 26508 ft 337 kts 335°
2026-05-07 18:18 -32.55337 -57.35716 26261 ft 336 kts 335°
2026-05-07 18:18 -32.53237 -57.36906 26017 ft 334 kts 335°
2026-05-07 18:18 -32.51142 -57.38094 25809 ft 333 kts 335°
2026-05-07 18:18 -32.49068 -57.39270 25575 ft 327 kts 334°
2026-05-07 18:19 -32.47025 -57.40427 25340 ft 324 kts 334°
2026-05-07 18:19 -32.44997 -57.41575 25098 ft 322 kts 334°
2026-05-07 18:19 -32.42978 -57.42717 24863 ft 321 kts 334°
2026-05-07 18:19 -32.40968 -57.43855 24607 ft 320 kts 334°
2026-05-07 18:20 -32.38954 -57.44996 24376 ft 322 kts 334°
2026-05-07 18:20 -32.36929 -57.46143 24147 ft 322 kts 334°
2026-05-07 18:20 -32.34886 -57.47300 23909 ft 321 kts 334°
2026-05-07 18:20 -32.32878 -57.48435 23524 ft 319 kts 334°
2026-05-07 18:21 -32.30882 -57.49561 22995 ft 317 kts 334°
2026-05-07 18:21 -32.28895 -57.50682 22464 ft 315 kts 334°
2026-05-07 18:21 -32.26929 -57.51792 21974 ft 312 kts 334°
2026-05-07 18:21 -32.24999 -57.52880 21786 ft 301 kts 334°
2026-05-07 18:22 -32.23139 -57.53924 21591 ft 292 kts 334°
2026-05-07 18:22 -32.21931 -57.54602 21363 ft 289 kts 333°
2026-05-07 18:22 -32.19581 -57.56095 20735 ft 287 kts 324°
2026-05-07 18:22 -32.17986 -57.57528 19976 ft 296 kts 323°
2026-05-07 18:23 -32.16328 -57.59014 19250 ft 305 kts 323°
2026-05-07 18:23 -32.14612 -57.60549 18760 ft 305 kts 323°
2026-05-07 18:23 -32.12941 -57.62038 18296 ft 306 kts 323°
2026-05-07 18:23 -32.11221 -57.63570 17794 ft 306 kts 323°
2026-05-07 18:24 -32.09521 -57.65084 17301 ft 305 kts 323°
2026-05-07 18:24 -32.07826 -57.66594 16842 ft 304 kts 322°
2026-05-07 18:24 -32.06166 -57.68073 16379 ft 294 kts 322°
2026-05-07 18:24 -32.04559 -57.69503 15948 ft 284 kts 322°
2026-05-07 18:25 -32.03007 -57.70885 15555 ft 276 kts 322°
2026-05-07 18:25 -32.01518 -57.72211 15168 ft 268 kts 322°
2026-05-07 18:25 -32.00051 -57.73517 14785 ft 261 kts 322°
2026-05-07 18:25 -31.98619 -57.74790 14408 ft 257 kts 322°
2026-05-07 18:26 -31.97136 -57.76112 13896 ft 274 kts 322°
2026-05-07 18:26 -31.95604 -57.77477 13464 ft 276 kts 322°
2026-05-07 18:26 -31.94064 -57.78844 13162 ft 269 kts 321°
2026-05-07 18:26 -31.92596 -57.80143 12796 ft 261 kts 321°
2026-05-07 18:27 -31.91155 -57.81419 12432 ft 258 kts 321°
2026-05-07 18:27 -31.89727 -57.82686 12068 ft 260 kts 321°
2026-05-07 18:27 -31.88276 -57.83976 11667 ft 262 kts 320°
2026-05-07 18:27 -31.87307 -57.84837 11405 ft 263 kts 320°
2026-05-07 18:28 -31.85340 -57.86585 10873 ft 266 kts 319°
2026-05-07 18:28 -31.83849 -57.87906 10466 ft 269 kts 319°
2026-05-07 18:28 -31.82351 -57.89233 10059 ft 271 kts 319°
2026-05-07 18:28 -31.80834 -57.90578 9643 ft 274 kts 319°
2026-05-07 18:29 -31.79301 -57.91935 9176 ft 277 kts 319°
2026-05-07 18:29 -31.77755 -57.93303 8729 ft 279 kts 318°
2026-05-07 18:29 -31.76200 -57.94681 8289 ft 280 kts 317°
2026-05-07 18:29 -31.74637 -57.96066 7832 ft 282 kts 318°
2026-05-07 18:30 -31.73063 -57.97458 7370 ft 284 kts 317°
2026-05-07 18:30 -31.71482 -57.98851 6900 ft 282 kts 318°
2026-05-07 18:30 -31.69917 -58.00228 6433 ft 282 kts 317°
2026-05-07 18:30 -31.68333 -58.01622 5943 ft 285 kts 318°
2026-05-07 18:31 -31.66742 -58.03025 5425 ft 284 kts 317°
2026-05-07 18:31 -31.65183 -58.04401 4964 ft 277 kts 317°
2026-05-07 18:31 -31.63640 -58.05756 4497 ft 277 kts 317°
2026-05-07 18:31 -31.62066 -58.07140 3982 ft 279 kts 317°
2026-05-07 18:32 -31.60522 -58.08491 3511 ft 273 kts 316°
2026-05-07 18:32 -31.59038 -58.09774 3271 ft 255 kts 318°
2026-05-07 18:32 -31.57385 -58.10465 2950 ft 259 kts 355°
2026-05-07 18:32 -31.55663 -58.09933 2694 ft 255 kts 27°
2026-05-07 18:33 -31.54234 -58.08811 2450 ft 246 kts 39°
2026-05-07 18:33 -31.52951 -58.07535 2196 ft 238 kts 41°
2026-05-07 18:33 -31.51726 -58.06261 1941 ft 234 kts 41°
2026-05-07 18:33 -31.50490 -58.04998 1700 ft 231 kts 39°
2026-05-07 18:34 -31.49691 -58.04205 1554 ft 222 kts 39°
2026-05-07 18:34 -31.48545 -58.03085 1296 ft 207 kts 39°
2026-05-07 18:34 -31.47425 -58.01991 974 ft 215 kts 38°
2026-05-07 18:34 -31.46308 -58.00908 725 ft 197 kts 37°
2026-05-07 18:35 -31.45300 -57.99925 461 ft 179 kts 40°
2026-05-07 18:35 -31.44385 -57.99025 153 ft 167 kts 31°
2026-05-07 18:35 -31.43607 -57.98293 134 ft 88 kts 36°
2026-05-07 18:35 -31.43409 -57.98122 134 ft 19 kts 39°
2026-05-07 18:36 -31.43367 -57.98082 136 ft 2 kts 39°
2026-05-07 18:36 -31.43342 -57.98055 136 ft 5 kts 46°
2026-05-07 18:36 -31.43317 -57.98052 136 ft 3 kts 29°
2026-05-07 18:36 -31.43337 -57.98044 136 ft 8 kts 196°
2026-05-07 18:37 -31.43418 -57.98121 135 ft 20 kts 221°
2026-05-07 18:37 -31.43531 -57.98230 134 ft 21 kts 220°
2026-05-07 18:37 -31.43644 -57.98342 134 ft 16 kts 216°
2026-05-07 18:37 -31.43725 -57.98307 134 ft 14 kts 112°
2026-05-07 18:38 -31.43733 -57.98227 134 ft 8 kts 96°
2026-05-07 18:38 -31.43737 -57.98167 134 ft 7 kts 87°
2026-05-07 18:38 -31.43741 -57.98124 134 ft 5 kts 126°
2026-05-07 18:38 -31.43766 -57.98109 134 ft 4 kts 168°
2026-05-07 18:39 -31.43770 -57.98109 134 ft 0 kts 173°